Wind_Speed
12 11 7 3 3 2 2 1 3 6 9 6 12 3 10 8 5 6 30 21 27 24 21 18 19 16 16 16 15 14 13 12 12 12 11 12 11 11 10 9 11 10 10 10 10 9 10 10 10
13 10 2 3 4 3 5 5 5 4 11 14 10 14 6 10 9 19 22 28 26 24 22 18 19 16 16 16 17 14 12 12 11 12 12 12 11 11 10 11 10 9 10 10 10 10 10 12 12
12 6 2 2 3 2 6 8 6 7 15 10 7 7 2 5 11 26 25 30 25 23 21 18 18 17 15 15 15 14 12 12 11 11 10 12 11 13 12 11 10 10 9 10 11 10 11 10 11
11 4 3 3 4 3 3 10 10 12 11 13 10 10 7 6 24 17 32 29 25 23 20 20 17 16 15 15 14 14 13 13 12 12 14 14 14 13 12 11 12 10 9 9 9 9 9 9 9
6 2 4 6 4 2 4 5 11 13 11 11 8 8 7 11 12 31 31 28 25 23 21 18 17 16 15 14 13 13 13 12 12 13 14 14 14 14 12 12 10 10 9 8 8 10 11 10 10
3 4 5 2 4 5 6 4 14 10 8 10 8 10 5 13 22 32 29 27 25 23 22 18 17 16 14 13 14 13 14 13 12 12 13 13 13 13 12 11 10 9 8 8 7 8 9 10 9
3 4 3 6 5 5 9 10 11 11 10 9 7 5 9 18 29 29 28 26 24 22 21 18 16 14 13 12 12 13 13 13 12 13 13 13 13 13 13 12 11 10 8 8 9 9 8 8 8
4 4 4 5 4 9 8 9 6 11 8 8 8 6 11 25 29 30 27 26 23 21 19 18 16 14 13 11 12 13 13 13 14 13 13 14 14 13 13 11 9 9 8 8 10 10 10 8 10
8 5 4 5 7 8 9 6 9 5 10 4 8 3 24 33 30 30 28 25 22 20 19 17 17 14 13 12 11 13 12 13 13 12 14 12 11 10 10 9 9 8 8 8 9 9 9 9 11
9 7 3 4 3 4 12 11 12 9 12 9 8 15 34 33 30 30 29 27 24 22 20 18 17 15 14 12 12 11 11 11 11 10 9 9 10 9 9 8 8 8 8 8 8 9 8 6 10
11 4 6 4 4 5 11 8 9 9 10 12 16 25 30 33 31 30 28 27 26 23 20 18 16 15 14 12 12 12 11 10 9 9 8 9 8 7 7 8 6 6 7 7 7 6 4 6 6
10 12 7 4 5 4 3 9 8 10 10 12 18 26 30 28 28 30 29 28 26 24 21 19 17 16 13 13 12 12 11 10 10 9 7 7 7 7 6 6 6 4 4 6 5 6 5 5 5
16 8 9 10 8 1 5 8 3 8 5 14 20 26 28 25 28 28 28 26 25 24 21 20 18 16 14 13 11 12 11 11 9 8 7 6 5 6 5 5 4 4 5 6 6 5 4 4 4
5 17 11 7 9 5 7 8 8 6 9 15 21 26 27 26 29 28 28 27 25 24 22 21 19 17 15 13 12 11 12 10 9 8 6 4 4 6 6 5 5 5 6 6 7 5 4 4 4
13 9 13 18 15 8 14 11 12 13 13 16 19 22 25 24 30 28 28 27 26 24 23 22 20 18 15 13 12 11 11 10 10 8 6 3 3 5 6 6 5 5 5 6 6 6 5 5 5
14 16 14 17 16 9 13 15 12 13 15 16 19 20 23 25 28 28 27 26 25 24 24 22 20 19 17 14 13 12 11 10 9 8 6 4 3 4 5 4 4 5 5 5 6 7 8 6 6
10 13 19 14 16 12 14 8 11 14 14 16 18 20 21 22 25 28 27 27 26 25 24 23 21 19 18 14 13 12 11 10 9 7 6 4 2 1 6 5 5 6 5 6 7 7 4 6 5
15 19 17 18 15 19 16 7 12 14 15 17 17 19 21 23 24 28 28 27 26 25 24 23 22 19 18 14 13 13 12 11 9 7 6 5 3 3 4 5 4 6 6 7 7 6 4 2 2
9 11 17 16 11 17 18 16 16 14 14 16 17 19 21 22 26 29 28 29 28 27 25 25 23 21 19 18 17 16 15 12 10 8 7 7 7 6 4 6 6 5 6 3 5 6 5 5 4
14 12 14 11 15 14 17 17 13 18 16 16 18 19 20 21 23 27 29 30 31 29 28 27 26 23 21 20 18 16 15 13 10 7 8 8 8 8 5 4 5 7 6 6 6 4 5 5 5
19 18 13 15 15 13 15 17 17 17 15 15 16 17 18 21 23 24 29 31 31 32 31 30 29 26 23 20 18 15 13 10 12 9 10 8 9 9 7 5 3 3 6 5 5 5 5 6 4
19 18 15 12 11 14 19 15 20 18 19 18 19 20 21 22 22 22 28 32 34 34 32 30 29 28 26 24 21 20 18 17 15 12 10 10 10 9 8 8 6 4 5 5 5 4 3 4 6
18 11 15 18 16 17 15 13 13 22 18 21 21 22 22 23 24 25 29 35 36 34 34 32 30 28 28 28 25 22 20 18 14 14 12 11 9 9 9 9 9 7 4 4 6 5 4 4 2
10 12 14 15 16 18 23 16 17 16 20 21 21 22 23 24 25 24 32 33 33 34 33 33 32 31 30 30 29 25 22 20 18 16 15 13 13 11 11 10 9 8 6 5 6 7 6 4 4
16 16 10 11 14 17 22 21 17 8 21 19 20 22 23 23 23 24 24 30 34 36 36 36 34 32 32 30 30 31 27 24 20 17 16 14 14 13 13 13 12 10 10 8 6 6 6 6 5
22 19 13 18 14 16 22 17 22 24 2 14 18 19 21 22 22 24 25 31 34 37 39 37 37 36 35 33 31 30 29 27 25 21 19 17 15 13 13 14 14 12 11 10 9 8 7 7 7
16 22 21 22 10 11 17 21 15 18 23 17 13 12 18 20 23 25 26 33 35 37 39 39 36 36 36 37 32 30 30 30 27 24 21 22 17 13 12 15 15 15 13 13 11 10 9 8 8
19 12 19 16 20 19 14 18 17 23 18 20 22 18 16 18 21 22 23 33 36 38 39 40 39 38 39 38 35 34 32 31 31 25 24 21 19 18 14 14 15 15 14 14 14 12 12 10 10
15 16 16 18 17 14 15 12 11 16 22 21 16 16 17 17 17 20 22 33 38 36 36 39 39 39 38 38 37 35 34 32 30 28 26 23 20 19 18 16 15 16 16 15 15 14 13 12 12
12 14 26 14 24 17 17 14 6 6 17 14 18 17 17 19 15 16 19 26 32 37 37 39 40 39 39 38 37 37 35 33 31 29 28 24 22 21 21 19 17 17 17 16 16 16 15 14 15
Wind_Direction
155 157 178 213 229 256 252 93 306 119 124 96 133 104 110 19 355 88 138 146 143 144 147 141 140 139 133 127 120 118 120 123 131 133 132 131 126 128 126 117 108 102 95 90 101 100 100 100 100
159 152 162 256 254 179 106 149 112 108 112 135 109 123 151 91 77 129 138 147 146 144 145 143 139 139 130 128 124 121 124 124 126 128 137 138 136 124 120 115 105 95 90 89 98 101 102 102 100
162 164 258 238 275 89 129 141 100 131 130 125 123 38 89 81 121 141 145 148 148 145 142 146 142 137 132 126 125 128 129 123 119 125 124 123 129 126 120 115 110 103 98 93 91 95 98 103 105
171 200 224 257 204 97 128 105 128 149 146 158 127 109 100 47 141 143 148 151 146 144 145 147 142 135 130 129 128 123 120 116 112 119 119 123 121 124 123 109 100 97 94 89 90 93 96 101 106
205 237 245 231 117 213 149 132 153 148 170 160 172 115 88 134 132 148 150 153 148 148 144 146 141 137 134 130 128 123 122 117 114 115 117 115 120 120 117 108 104 106 110 102 98 99 100 98 99
204 244 251 174 125 168 99 171 168 159 152 140 145 123 117 155 156 154 154 154 152 146 145 145 142 140 135 128 130 130 124 121 120 125 116 116 112 113 108 105 105 105 108 119 117 107 101 99 97
249 245 266 110 138 163 140 195 168 155 165 175 130 127 130 156 157 156 156 154 153 148 143 145 144 143 134 130 133 120 119 119 122 113 117 117 113 111 108 106 107 108 116 115 116 111 100 96 100
242 274 222 129 170 125 128 163 230 173 148 106 157 159 159 153 161 157 157 157 157 152 149 147 148 147 140 133 135 125 119 121 119 120 118 114 109 108 107 97 105 112 113 113 123 124 115 101 109
228 254 206 125 219 128 139 146 199 84 145 157 164 145 145 149 165 159 159 161 161 160 159 155 154 154 149 139 145 125 129 125 124 121 122 115 117 116 102 118 104 110 110 112 122 128 120 110 101
225 251 249 47 72 90 167 167 152 163 157 147 139 119 141 152 165 165 165 165 168 166 167 163 161 157 153 146 142 140 139 139 137 131 131 127 123 122 121 116 117 120 118 118 124 130 114 153 119
213 231 258 171 99 350 146 171 164 160 179 164 151 145 154 157 167 169 168 171 171 170 170 167 163 162 159 147 151 150 148 151 148 143 143 131 130 130 129 119 124 119 119 126 118 125 129 74 84
245 224 243 138 150 68 212 133 176 190 56 141 153 158 159 167 170 172 171 171 170 172 171 171 168 167 165 161 161 155 154 157 156 155 153 142 143 132 132 125 125 133 134 139 129 131 115 107 97
226 236 228 235 251 193 207 190 128 186 111 136 149 164 168 171 169 173 172 172 172 175 174 176 174 172 172 169 165 161 155 159 155 158 163 158 147 135 142 147 153 131 146 141 135 128 125 116 114
200 236 245 206 223 182 236 191 196 127 146 146 159 171 173 175 171 174 176 174 176 178 178 178 180 179 177 175 170 169 162 160 160 160 172 178 142 136 160 148 141 136 144 135 142 136 137 124 128
223 240 221 238 237 221 215 206 206 137 154 157 167 173 177 178 173 180 179 178 179 183 179 183 184 185 183 182 177 174 173 167 167 164 161 173 162 133 131 151 151 144 151 141 137 143 143 131 128
223 230 244 209 207 198 217 195 149 166 166 165 170 177 179 182 179 183 182 182 181 184 184 186 188 188 186 186 182 180 176 171 169 167 162 171 169 133 139 140 143 129 149 146 154 158 172 130 121
203 219 221 176 207 200 205 178 154 176 174 167 174 176 182 184 186 185 185 187 183 186 185 189 190 190 189 191 187 185 184 180 174 176 179 183 187 212 118 127 145 149 154 147 138 157 153 131 132
202 223 207 215 193 213 195 181 160 179 181 173 177 178 185 188 189 185 190 189 188 187 187 190 192 192 191 194 191 189 190 191 190 200 204 201 187 193 133 128 153 165 160 153 141 143 132 97 110
295 230 226 217 194 211 221 211 170 183 191 182 181 184 188 191 188 188 192 190 190 192 189 191 194 194 191 194 195 191 194 196 200 206 201 191 187 190 188 142 147 161 190 160 154 150 135 131 147
232 231 226 223 211 218 219 229 212 178 201 196 187 187 189 188 189 192 193 193 194 194 194 193 195 195 195 196 198 199 199 200 202 197 186 182 185 190 193 182 163 159 166 160 184 199 171 131 159
228 229 227 229 194 221 244 231 215 182 205 201 201 191 192 192 192 192 194 197 197 196 197 197 196 195 195 198 195 194 194 202 201 197 195 196 189 193 194 200 206 161 175 183 201 191 226 148 165
231 217 240 242 245 224 213 234 208 200 204 201 199 195 197 194 197 193 196 199 200 201 199 199 200 197 196 196 196 198 199 203 205 206 197 192 198 200 208 199 204 210 192 180 200 199 185 236 146
238 234 218 237 245 256 192 235 230 197 200 204 208 199 198 200 196 198 198 201 202 200 200 200 200 202 200 197 202 201 211 210 207 209 203 207 203 206 209 209 200 202 188 193 191 194 207 197 260
220 232 225 229 234 237 231 217 228 195 201 205 205 205 204 200 200 202 201 201 203 202 201 200 200 201 203 200 203 205 209 217 210 206 208 217 218 219 219 215 207 204 207 205 202 187 205 228 215
208 205 213 208 215 231 220 231 234 228 182 211 201 202 203 205 202 202 199 199 201 201 201 201 198 201 202 204 204 206 208 209 212 210 214 220 219 222 219 218 217 213 212 215 210 199 198 203 216
209 221 219 210 211 223 222 225 222 233 51 218 224 195 204 204 207 204 202 200 199 201 201 201 196 199 200 203 205 205 207 212 218 220 226 224 227 230 229 222 222 221 220 216 216 214 211 201 210
198 219 236 259 264 263 211 219 241 220 224 206 201 215 202 202 205 206 203 203 201 200 201 199 198 199 197 202 204 207 209 214 219 224 226 231 230 232 231 225 223 224 219 220 222 225 225 224 221
255 225 221 235 242 240 229 225 210 216 222 219 225 219 211 213 208 208 204 203 203 202 202 201 202 200 199 200 205 209 213 214 220 222 225 227 228 227 230 225 222 218 215 215 221 229 231 228 233
208 236 233 234 225 235 239 213 228 230 209 217 212 217 222 223 210 209 205 205 205 203 201 202 202 204 205 203 203 207 210 213 217 221 226 226 224 223 226 224 222 220 219 216 218 226 237 232 233
293 260 224 229 219 236 267 227 108 207 212 199 220 230 238 226 215 206 206 203 202 203 202 201 201 203 205 204 201 204 207 209 213 220 224 224 223 221 225 225 223 224 222 220 220 223 231 236 236
Height
791 793 793 793 804 791 793 791 782 776 776 764 770 776 782 782 791 812 806 813 817 822 827 831 832 834 834 835 836 838 839 840 842 844 844 845 846 848 848 849 850 851 851 851 851 851 852 853 853
791 793 794 793 795 796 782 788 786 778 768 767 770 777 783 794 792 801 808 813 819 823 827 832 834 835 836 837 839 840 842 843 844 845 846 846 848 849 850 852 853 853 853 853 854 854 854 854 855
791 792 795 792 787 785 780 777 775 770 768 779 779 778 782 796 797 804 808 814 819 824 828 833 835 837 838 839 841 842 843 845 846 847 849 850 851 851 853 854 855 855 855 855 856 856 856 857 857
788 792 787 796 786 772 775 774 777 774 774 772 775 789 793 801 799 804 811 816 820 825 830 834 837 838 840 842 843 844 845 847 848 849 851 852 853 853 855 856 857 857 858 858 858 858 858 858 859
786 787 791 779 780 774 764 762 767 779 774 775 773 794 803 804 805 808 813 817 821 826 832 836 838 840 841 843 845 846 847 849 851 851 853 853 854 856 856 858 858 858 859 860 860 860 860 861 862
788 778 784 786 790 767 761 764 761 764 770 774 780 789 804 806 808 810 814 818 823 827 832 837 840 842 843 845 846 848 850 851 853 853 854 855 856 857 859 859 859 860 862 861 862 862 862 863 864
789 781 777 779 784 770 765 762 762 768 772 775 770 786 803 805 808 811 815 820 824 829 833 838 841 843 845 847 848 850 851 852 853 855 856 857 858 860 861 861 862 862 862 863 864 864 864 865 866
777 775 769 772 778 772 760 762 757 760 770 767 772 788 803 802 809 812 817 822 825 830 835 838 842 844 847 849 850 851 853 854 855 857 858 859 861 862 863 862 863 863 863 864 864 865 866 867 867
769 780 772 763 773 759 762 769 765 758 770 772 774 776 784 802 809 811 817 822 827 831 835 838 842 844 847 850 852 853 855 856 857 859 861 861 862 864 864 864 864 865 865 865 865 866 867 868 869
769 774 762 748 746 751 757 755 761 767 772 776 778 780 793 803 808 809 813 819 825 831 835 838 841 844 847 849 853 854 857 858 859 861 862 862 864 864 865 865 865 865 866 866 866 868 868 867 868
765 779 758 750 747 753 748 755 753 762 772 770 778 784 793 801 807 809 814 819 824 830 834 838 841 845 847 849 852 854 856 859 861 862 863 864 864 865 865 866 866 867 867 867 868 870 868 869 868
770 761 758 748 747 754 754 746 756 757 756 757 770 781 788 795 800 804 812 818 823 830 833 838 842 845 848 850 852 854 856 858 860 862 863 865 864 866 865 865 867 867 868 868 869 870 872 872 872
767 758 754 751 750 751 751 754 753 757 757 761 772 781 787 793 800 806 812 818 824 830 834 838 842 846 848 850 852 854 856 858 859 862 864 864 864 866 866 867 867 868 868 869 870 871 872 873 872
753 757 753 751 749 749 757 751 753 755 759 765 772 779 785 790 798 806 810 817 823 829 833 837 841 845 848 850 852 854 856 858 860 862 863 863 864 867 866 867 867 868 868 870 871 872 872 872 872
754 764 755 753 749 751 747 758 759 756 761 768 774 779 784 790 798 804 809 816 822 829 832 836 841 844 848 850 852 854 856 858 860 861 863 864 864 866 866 867 868 869 870 871 872 873 873 872 871
764 761 764 743 745 743 748 756 749 755 761 769 774 778 783 788 796 804 809 815 821 826 831 836 839 843 847 849 851 854 856 857 860 861 862 864 864 867 867 868 869 870 871 871 871 872 871 871 872
758 763 761 745 736 739 748 749 752 753 757 766 772 776 781 787 795 802 807 813 818 824 830 834 838 841 845 849 851 853 856 857 859 861 863 864 865 865 867 869 870 871 871 871 872 872 871 873 870
757 761 742 748 742 738 746 746 753 754 755 762 768 774 778 783 789 798 805 811 816 822 828 833 836 840 844 848 850 852 854 856 858 860 862 864 865 866 866 869 871 872 873 872 871 872 874 872 872
746 744 747 739 728 741 741 741 749 755 755 759 763 770 774 778 786 794 801 807 813 818 824 829 834 838 842 845 847 849 851 854 856 858 861 863 865 866 867 869 872 873 874 872 876 875 875 875 875
755 758 752 734 730 740 737 741 730 745 752 751 756 764 768 774 780 788 796 802 807 813 820 825 830 834 839 842 844 846 849 851 854 856 859 861 863 865 867 869 870 874 874 874 875 875 872 874 875
759 758 750 748 738 739 740 744 738 733 744 747 750 755 761 767 773 782 789 795 802 807 813 820 824 829 835 839 842 846 848 850 852 854 856 859 861 864 866 868 869 872 874 874 874 874 873 870 875
759 746 752 752 756 759 737 758 736 731 744 745 747 751 755 759 767 773 782 788 793 800 809 815 821 825 830 835 838 841 843 845 847 850 853 856 859 862 864 866 868 870 871 872 873 873 872 872 872
751 738 749 755 757 749 738 752 723 718 738 739 738 740 744 751 756 762 770 778 785 794 801 809 816 821 825 829 833 838 841 842 845 848 851 855 857 860 862 864 866 869 870 872 872 873 873 873 871
739 749 752 752 755 766 744 745 730 725 724 727 727 731 735 740 747 754 761 772 780 788 795 802 809 815 820 824 828 833 836 839 841 845 848 851 854 856 859 862 863 865 868 869 870 871 872 872 873
745 753 762 771 765 757 729 740 728 702 702 708 714 721 725 730 737 744 752 761 769 777 785 792 800 807 813 819 823 827 832 836 839 843 845 847 849 852 855 858 860 863 865 867 868 870 871 872 872
740 737 743 763 749 743 725 733 722 704 702 697 700 703 713 722 728 735 743 751 760 768 775 783 790 797 805 812 816 821 827 832 836 839 841 843 845 847 851 854 857 860 862 864 866 867 868 869 870
730 742 718 724 714 728 712 717 702 694 701 704 704 704 706 711 717 724 733 742 750 759 766 773 781 789 796 803 810 816 821 826 829 833 837 839 842 844 848 851 853 855 858 860 862 864 865 866 868
729 715 741 730 752 749 721 714 720 710 708 699 701 701 700 700 706 714 722 732 741 749 757 766 774 780 786 794 802 808 814 819 824 828 832 835 837 841 843 846 849 851 853 856 858 860 861 863 864
732 736 724 716 724 735 739 714 683 691 692 698 692 690 690 691 695 703 711 720 730 740 750 757 766 773 780 786 792 800 805 811 816 822 826 829 833 836 838 841 844 846 849 851 854 856 857 858 860
735 722 717 727 732 721 717 711 677 682 680 684 686 682 681 684 688 696 704 714 722 730 738 746 754 763 769 776 783 789 797 803 809 814 819 823 827 829 832 836 839 842 844 847 849 851 853 854 855